Overview Statistics Trail Chart Weather Telemetry Raw packets
 

This is the latest recevied weather packets stored in our database for station/object OE3APM-13. If no packets are shown the sender has not sent any weather packets the latest 10 day(s).

<< 89 90 91 92 93 94 95 >>
Time Temp. Humidity Pressure Rain* Wind** Luminosity Snow
1787958308 17.22° C 92% 1016.2 hPa 2.03 mm - 0 W/m² -
1787958006 17.22° C 92% 1016.2 hPa 2.29 mm - 0 W/m² -
1787957708 17.22° C 91% 1016.1 hPa 2.29 mm - 0 W/m² -
1787957407 17.78° C 91% 1016 hPa 3.05 mm - 0 W/m² -
1787957109 17.78° C 92% 1015.7 hPa 3.3 mm - 0 W/m² -
1787956810 17.78° C 92% 1015.6 hPa 4.32 mm - 0 W/m² -
1787956505 17.78° C 92% 1015.5 hPa 4.06 mm - 0 W/m² -
1787956202 17.78° C 92% 1015.4 hPa 4.06 mm - 0 W/m² -
1787955892 17.78° C 92% 1015.6 hPa 4.32 mm - 0 W/m² -
1787955586 17.78° C 92% 1015.4 hPa 5.08 mm - 0 W/m² -
1787955285 17.78° C 92% 1015.6 hPa 4.83 mm - 0 W/m² -
1787954970 17.78° C 92% 1015.5 hPa 4.83 mm - 0 W/m² -
1787954672 17.78° C 92% 1015.6 hPa 4.32 mm - 0 W/m² -
1787954369 17.78° C 92% 1015.7 hPa 3.56 mm - 0 W/m² -
1787954058 17.78° C 92% 1015.6 hPa 3.3 mm - 0 W/m² -
1787953753 17.78° C 92% 1015.7 hPa 2.79 mm - 0 W/m² -
1787953444 17.78° C 92% 1015.4 hPa 2.03 mm - 0 W/m² -
1787953136 17.78° C 92% 1015.6 hPa 1.52 mm - 0 W/m² -
1787952835 17.78° C 92% 1015.4 hPa 1.52 mm - 0 W/m² -
1787952526 17.78° C 92% 1015.3 hPa 1.52 mm - 0 W/m² -
1787952225 17.78° C 92% 1015.5 hPa 1.27 mm - 0 W/m² -
1787951926 17.78° C 92% 1015.4 hPa 0.51 mm - 0 W/m² -
1787951625 17.78° C 92% 1015.5 hPa 0.51 mm - 0 W/m² -
1787951323 17.78° C 92% 1015.3 hPa 0.51 mm - 0 W/m² -
1787951025 17.78° C 92% 1014.8 hPa 0.51 mm - 0 W/m² -

* Rain latest hour (hover to see other rain measurements)
** Current wind speed in m/s (hover to see current wind gust speed)